AAY1530 KCVG-KGSO

Flight info

Callsign AAY1530
Flight time 0h 51m
Altitude 35000
Route KENLN6 SHIPR LOGIC TRENT SLINK OTONE TRAKS4
Aircraft A319/M-SDE3FGHIRWY/LB1

Departure

Time 2026-05-08 15:45
Airport Cincinnati Northern Kentucky International Airport (KCVG)

Arrival

Time 2026-05-08 16:36
Airport Piedmont Triad International Airport (KGSO)
Time Latitude Longitude Altitude Speed Heading
2026-05-08 15:30 39.05286 -84.65461 885 ft 0 kts 292°
2026-05-08 15:37 39.05284 -84.65454 885 ft 4 kts 295°
2026-05-08 15:38 39.05269 -84.65427 885 ft 4 kts 327°
2026-05-08 15:38 39.05245 -84.65416 885 ft 4 kts 359°
2026-05-08 15:38 39.05219 -84.65420 884 ft 4 kts 13°
2026-05-08 15:38 39.05197 -84.65426 882 ft 0 kts 12°
2026-05-08 15:40 39.05206 -84.65420 883 ft 1 kts 32°
2026-05-08 15:41 39.05211 -84.65409 883 ft 2 kts 65°
2026-05-08 15:41 39.05214 -84.65373 884 ft 6 kts 89°
2026-05-08 15:41 39.05213 -84.65296 884 ft 12 kts 90°
2026-05-08 15:41 39.05214 -84.65155 879 ft 20 kts 90°
2026-05-08 15:42 39.05213 -84.65027 873 ft 11 kts 90°
2026-05-08 15:42 39.05214 -84.64929 871 ft 9 kts 88°
2026-05-08 15:42 39.05259 -84.64881 870 ft 10 kts
2026-05-08 15:42 39.05332 -84.64880 870 ft 11 kts
2026-05-08 15:43 39.05415 -84.64879 869 ft 13 kts
2026-05-08 15:43 39.05510 -84.64880 868 ft 13 kts 359°
2026-05-08 15:43 39.05570 -84.64847 868 ft 10 kts 66°
2026-05-08 15:43 39.05571 -84.64758 869 ft 10 kts 86°
2026-05-08 15:44 39.05560 -84.64674 870 ft 9 kts 140°
2026-05-08 15:44 39.05492 -84.64669 869 ft 11 kts 180°
2026-05-08 15:44 39.05306 -84.64671 868 ft 60 kts 180°
2026-05-08 15:44 39.04634 -84.64676 875 ft 130 kts 181°
2026-05-08 15:45 39.03620 -84.64683 1263 ft 151 kts 185°
2026-05-08 15:45 39.02564 -84.64667 2084 ft 152 kts 184°
2026-05-08 15:45 39.01495 -84.64622 2846 ft 155 kts 183°
2026-05-08 15:45 39.00391 -84.64506 3418 ft 172 kts 176°
2026-05-08 15:46 38.99136 -84.64142 3865 ft 198 kts 171°
2026-05-08 15:46 38.97710 -84.63669 4368 ft 225 kts 169°
2026-05-08 15:46 38.96129 -84.63114 5045 ft 246 kts 167°
2026-05-08 15:46 38.94420 -84.62461 5805 ft 265 kts 166°
2026-05-08 15:47 38.92613 -84.61701 6617 ft 280 kts 164°
2026-05-08 15:47 38.90760 -84.60907 7690 ft 280 kts 167°
2026-05-08 15:47 38.88872 -84.60267 8749 ft 284 kts 170°
2026-05-08 15:47 38.86921 -84.59692 9692 ft 291 kts 171°
2026-05-08 15:48 38.82727 -84.58721 10907 ft 323 kts 182°
2026-05-08 15:48 38.80463 -84.58848 11704 ft 328 kts 191°
2026-05-08 15:48 38.78165 -84.59123 12557 ft 335 kts 191°
2026-05-08 15:49 38.75805 -84.59238 13375 ft 348 kts 180°
2026-05-08 15:49 38.73424 -84.58384 14123 ft 367 kts 157°
2026-05-08 15:49 38.71381 -84.56339 14836 ft 381 kts 131°
2026-05-08 15:49 38.69942 -84.53498 15581 ft 388 kts 121°
2026-05-08 15:50 38.68576 -84.50494 16331 ft 393 kts 121°
2026-05-08 15:50 38.67193 -84.47442 17060 ft 399 kts 122°
2026-05-08 15:50 38.65793 -84.44358 17771 ft 404 kts 122°
2026-05-08 15:50 38.64363 -84.41223 18460 ft 410 kts 122°
2026-05-08 15:51 38.62912 -84.38054 19077 ft 415 kts 123°
2026-05-08 15:51 38.61443 -84.34859 19741 ft 419 kts 123°
2026-05-08 15:51 38.59956 -84.31637 20406 ft 422 kts 123°
2026-05-08 15:51 38.58456 -84.28395 21078 ft 426 kts 124°
2026-05-08 15:52 38.56936 -84.25114 21706 ft 430 kts 124°
2026-05-08 15:52 38.55405 -84.21809 22350 ft 434 kts 124°
2026-05-08 15:52 38.53864 -84.18480 23007 ft 438 kts 124°
2026-05-08 15:52 38.52306 -84.15120 23649 ft 441 kts 124°
2026-05-08 15:53 38.50734 -84.11732 24163 ft 445 kts 125°
2026-05-08 15:53 38.49165 -84.08355 24632 ft 450 kts 125°
2026-05-08 15:53 38.47561 -84.04906 25115 ft 455 kts 125°
2026-05-08 15:53 38.45932 -84.01406 25584 ft 460 kts 125°
2026-05-08 15:54 38.44291 -83.97884 26046 ft 465 kts 125°
2026-05-08 15:54 38.42629 -83.94320 26497 ft 469 kts 125°
2026-05-08 15:54 38.40954 -83.90726 26948 ft 474 kts 125°
2026-05-08 15:54 38.39257 -83.87089 27369 ft 480 kts 125°
2026-05-08 15:55 38.37545 -83.83418 27783 ft 484 kts 126°
2026-05-08 15:55 38.34056 -83.75963 28613 ft 493 kts 126°
2026-05-08 15:55 38.32290 -83.72200 29026 ft 498 kts 126°
2026-05-08 15:56 38.30268 -83.67900 29485 ft 503 kts 126°
2026-05-08 15:56 38.28396 -83.63924 29911 ft 507 kts 126°
2026-05-08 15:56 38.26577 -83.60058 30289 ft 511 kts 126°
2026-05-08 15:57 38.24741 -83.56165 30642 ft 515 kts 126°
2026-05-08 15:57 38.22889 -83.52246 31001 ft 519 kts 127°
2026-05-08 15:57 38.21017 -83.48290 31297 ft 523 kts 127°
2026-05-08 15:57 38.19129 -83.44307 31617 ft 527 kts 127°
2026-05-08 15:58 38.17256 -83.40357 31954 ft 530 kts 127°
2026-05-08 15:58 38.15347 -83.36327 32299 ft 533 kts 127°
2026-05-08 15:58 38.13430 -83.32282 32636 ft 536 kts 127°
2026-05-08 15:58 38.11507 -83.28225 33065 ft 537 kts 128°
2026-05-08 15:59 38.09575 -83.24164 33551 ft 536 kts 128°
2026-05-08 15:59 38.07637 -83.20103 34008 ft 536 kts 128°
2026-05-08 15:59 38.05704 -83.16058 34399 ft 536 kts 129°
2026-05-08 15:59 38.03770 -83.12019 34753 ft 537 kts 128°
2026-05-08 16:00 38.01827 -83.07966 35012 ft 539 kts 128°
2026-05-08 16:00 37.99876 -83.03908 35090 ft 534 kts 128°
2026-05-08 16:00 37.97975 -82.99939 35036 ft 521 kts 129°
2026-05-08 16:00 37.96102 -82.96030 35097 ft 517 kts 129°
2026-05-08 16:01 37.92370 -82.88281 35104 ft 514 kts 129°
2026-05-08 16:01 37.88640 -82.80554 35123 ft 514 kts 129°
2026-05-08 16:02 37.84927 -82.72866 35131 ft 515 kts 129°
2026-05-08 16:02 37.81170 -82.65134 35135 ft 516 kts 129°
2026-05-08 16:03 37.77414 -82.57418 35135 ft 515 kts 129°
2026-05-08 16:03 37.73660 -82.49696 35088 ft 515 kts 129°
2026-05-08 16:04 37.69903 -82.41989 35051 ft 515 kts 130°
2026-05-08 16:04 37.66128 -82.34282 35063 ft 516 kts 130°
2026-05-08 16:05 37.62339 -82.26576 35067 ft 518 kts 130°
2026-05-08 16:05 37.58537 -82.18850 35069 ft 519 kts 130°
2026-05-08 16:06 37.54729 -82.11105 35075 ft 520 kts 130°
2026-05-08 16:06 37.50917 -82.03373 35083 ft 520 kts 130°
2026-05-08 16:07 37.47086 -81.95648 35091 ft 519 kts 130°
2026-05-08 16:07 37.43307 -81.87881 35054 ft 521 kts 129°
2026-05-08 16:08 37.41437 -81.83923 34907 ft 532 kts 129°
2026-05-08 16:08 37.39554 -81.79903 34671 ft 534 kts 129°
2026-05-08 16:08 37.37675 -81.75872 34439 ft 534 kts 129°
2026-05-08 16:08 37.35793 -81.71846 34209 ft 532 kts 129°
2026-05-08 16:09 37.33935 -81.67905 33962 ft 530 kts 129°
2026-05-08 16:09 37.32663 -81.65224 33793 ft 528 kts 129°
2026-05-08 16:09 37.30161 -81.59989 33446 ft 525 kts 129°
2026-05-08 16:09 37.28280 -81.56072 33184 ft 522 kts 129°
2026-05-08 16:10 37.26411 -81.52186 32913 ft 519 kts 129°
2026-05-08 16:10 37.24493 -81.48377 32646 ft 508 kts 136°
2026-05-08 16:10 37.22175 -81.45167 32394 ft 486 kts 150°
2026-05-08 16:10 37.20442 -81.43468 32234 ft 470 kts 159°
2026-05-08 16:11 37.17671 -81.41420 31990 ft 459 kts 164°
2026-05-08 16:11 37.14893 -81.39457 31701 ft 457 kts 163°
2026-05-08 16:11 37.12126 -81.37502 31462 ft 455 kts 163°
2026-05-08 16:11 37.09374 -81.35556 31222 ft 453 kts 163°
2026-05-08 16:12 37.06639 -81.33620 30986 ft 450 kts 162°
2026-05-08 16:12 37.03928 -81.31700 30745 ft 447 kts 162°
2026-05-08 16:12 37.01223 -81.29789 30518 ft 445 kts 162°
2026-05-08 16:12 36.98532 -81.27893 30295 ft 442 kts 162°
2026-05-08 16:13 36.95850 -81.26006 30025 ft 441 kts 161°
2026-05-08 16:13 36.93186 -81.24136 29746 ft 439 kts 161°
2026-05-08 16:13 36.90525 -81.22268 29435 ft 437 kts 161°
2026-05-08 16:13 36.87884 -81.20411 29159 ft 435 kts 161°
2026-05-08 16:14 36.85250 -81.18555 28880 ft 433 kts 161°
2026-05-08 16:14 36.82668 -81.16738 28597 ft 431 kts 161°
2026-05-08 16:14 36.80059 -81.14904 28333 ft 429 kts 161°
2026-05-08 16:14 36.77460 -81.13085 28072 ft 427 kts 161°
2026-05-08 16:15 36.74877 -81.11281 27779 ft 425 kts 161°
2026-05-08 16:15 36.72297 -81.09482 27521 ft 423 kts 161°
2026-05-08 16:15 36.69731 -81.07692 27267 ft 422 kts 161°
2026-05-08 16:15 36.67177 -81.05908 27012 ft 420 kts 161°
2026-05-08 16:16 36.64634 -81.04127 26734 ft 416 kts 161°
2026-05-08 16:16 36.62141 -81.02374 26411 ft 410 kts 162°
2026-05-08 16:16 36.59667 -81.00642 26009 ft 406 kts 162°
2026-05-08 16:16 36.57213 -80.98937 25602 ft 403 kts 162°
2026-05-08 16:17 36.54767 -80.97245 25186 ft 400 kts 162°
2026-05-08 16:17 36.52344 -80.95570 24778 ft 398 kts 161°
2026-05-08 16:17 36.49935 -80.93901 24354 ft 396 kts 161°
2026-05-08 16:17 36.47534 -80.92235 23946 ft 394 kts 161°
2026-05-08 16:18 36.45140 -80.90575 23512 ft 393 kts 161°
2026-05-08 16:18 36.42764 -80.88931 23074 ft 390 kts 161°
2026-05-08 16:18 36.40406 -80.87302 22673 ft 385 kts 161°
2026-05-08 16:18 36.38107 -80.85712 22268 ft 381 kts 161°
2026-05-08 16:19 36.35804 -80.84118 21877 ft 378 kts 161°
2026-05-08 16:19 36.33518 -80.82537 21496 ft 375 kts 161°
2026-05-08 16:19 36.31251 -80.80969 21117 ft 372 kts 160°
2026-05-08 16:19 36.29000 -80.79415 20737 ft 368 kts 160°
2026-05-08 16:20 36.26768 -80.77878 20356 ft 366 kts 160°
2026-05-08 16:20 36.24543 -80.76346 19979 ft 364 kts 160°
2026-05-08 16:20 36.22334 -80.74829 19603 ft 363 kts 160°
2026-05-08 16:20 36.20131 -80.73319 19225 ft 361 kts 160°
2026-05-08 16:21 36.17955 -80.71773 18850 ft 363 kts 154°
2026-05-08 16:21 36.15979 -80.69770 18469 ft 372 kts 140°
2026-05-08 16:21 36.14361 -80.67248 18040 ft 378 kts 126°
2026-05-08 16:21 36.13199 -80.64320 17613 ft 380 kts 111°
2026-05-08 16:22 36.12547 -80.61144 17120 ft 382 kts 98°
2026-05-08 16:22 36.12155 -80.57904 16730 ft 380 kts 98°
2026-05-08 16:22 36.11753 -80.54675 16345 ft 378 kts 98°
2026-05-08 16:22 36.11348 -80.51464 15958 ft 377 kts 98°
2026-05-08 16:23 36.10942 -80.48267 15569 ft 376 kts 98°
2026-05-08 16:23 36.10534 -80.45082 15189 ft 375 kts 98°
2026-05-08 16:23 36.10126 -80.41903 14808 ft 373 kts 98°
2026-05-08 16:23 36.09660 -80.38790 14424 ft 372 kts 106°
2026-05-08 16:24 36.08642 -80.35829 14047 ft 368 kts 123°
2026-05-08 16:24 36.07111 -80.33385 13612 ft 363 kts 139°
2026-05-08 16:24 36.05151 -80.31496 13196 ft 354 kts 154°
2026-05-08 16:24 36.03027 -80.29987 12795 ft 350 kts 155°
2026-05-08 16:25 36.00919 -80.28490 12375 ft 348 kts 155°
2026-05-08 16:25 35.98825 -80.26999 11979 ft 346 kts 155°
2026-05-08 16:25 35.96744 -80.25519 11542 ft 344 kts 155°
2026-05-08 16:25 35.94668 -80.24042 11127 ft 341 kts 154°
2026-05-08 16:26 35.92780 -80.22295 10539 ft 345 kts 134°
2026-05-08 16:26 35.91692 -80.19667 10047 ft 344 kts 101°
2026-05-08 16:26 35.91772 -80.16835 9914 ft 321 kts 69°
2026-05-08 16:26 35.92858 -80.14591 9722 ft 295 kts 40°
2026-05-08 16:27 35.94363 -80.12896 9142 ft 295 kts 41°
2026-05-08 16:27 35.95441 -80.10762 8662 ft 301 kts 69°
2026-05-08 16:27 35.95680 -80.08219 8201 ft 300 kts 96°
2026-05-08 16:27 35.95013 -80.05826 7751 ft 295 kts 123°
2026-05-08 16:28 35.93594 -80.04078 7310 ft 287 kts 150°
2026-05-08 16:28 35.91732 -80.03320 6861 ft 281 kts 177°
2026-05-08 16:28 35.89838 -80.03693 6409 ft 276 kts 204°
2026-05-08 16:28 35.88330 -80.05088 5937 ft 270 kts 233°
2026-05-08 16:29 35.87567 -80.07144 5474 ft 263 kts 263°
2026-05-08 16:29 35.87710 -80.09342 5020 ft 257 kts 293°
2026-05-08 16:29 35.88660 -80.11156 4565 ft 250 kts 317°
2026-05-08 16:29 35.90041 -80.12414 4100 ft 245 kts 337°
2026-05-08 16:30 35.91625 -80.13010 3739 ft 235 kts 355°
2026-05-08 16:30 35.93238 -80.12965 3280 ft 232 kts 12°
2026-05-08 16:30 35.94746 -80.12301 2896 ft 228 kts 31°
2026-05-08 16:30 35.95972 -80.11162 2865 ft 216 kts 45°
2026-05-08 16:31 35.96981 -80.09882 2842 ft 200 kts 46°
2026-05-08 16:31 35.97907 -80.08709 2879 ft 182 kts 46°
2026-05-08 16:31 35.98747 -80.07643 2872 ft 174 kts 46°
2026-05-08 16:31 35.99661 -80.06483 2876 ft 192 kts 46°
2026-05-08 16:32 36.00539 -80.05368 2871 ft 171 kts 46°
2026-05-08 16:32 36.01310 -80.04390 2875 ft 148 kts 46°
2026-05-08 16:32 36.02015 -80.03494 2839 ft 142 kts 47°
2026-05-08 16:32 36.02693 -80.02633 2721 ft 137 kts 46°
2026-05-08 16:33 36.03360 -80.01784 2559 ft 137 kts 46°
2026-05-08 16:33 36.04028 -80.00934 2390 ft 138 kts 46°
2026-05-08 16:33 36.04680 -80.00105 2218 ft 138 kts 46°
2026-05-08 16:34 36.05246 -79.99385 2073 ft 136 kts 47°
2026-05-08 16:34 36.05907 -79.98543 1877 ft 136 kts 47°
2026-05-08 16:34 36.06569 -79.97701 1695 ft 137 kts 46°
2026-05-08 16:35 36.07221 -79.96864 1490 ft 137 kts 46°
2026-05-08 16:35 36.07895 -79.96010 1300 ft 136 kts 46°
2026-05-08 16:35 36.08534 -79.95187 1095 ft 133 kts 46°
2026-05-08 16:35 36.09182 -79.94366 920 ft 131 kts 46°
2026-05-08 16:36 36.09737 -79.93669 916 ft 98 kts 46°
2026-05-08 16:36 36.10137 -79.93157 925 ft 70 kts 46°
2026-05-08 16:36 36.10430 -79.92780 933 ft 52 kts 46°
2026-05-08 16:36 36.10603 -79.92563 941 ft 31 kts 46°
2026-05-08 16:37 36.10712 -79.92485 944 ft 11 kts 309°
2026-05-08 16:37 36.10769 -79.92558 942 ft 13 kts 316°
2026-05-08 16:37 36.10788 -79.92638 941 ft 11 kts 241°
2026-05-08 16:37 36.10731 -79.92713 940 ft 13 kts 223°
2026-05-08 16:38 36.10660 -79.92803 939 ft 16 kts 226°
2026-05-08 16:38 36.10577 -79.92909 938 ft 18 kts 226°
2026-05-08 16:38 36.10483 -79.93029 934 ft 19 kts 225°
2026-05-08 16:38 36.10423 -79.93105 932 ft 10 kts 230°
2026-05-08 16:39 36.10431 -79.93190 931 ft 12 kts 317°
2026-05-08 16:39 36.10505 -79.93242 930 ft 12 kts 305°
2026-05-08 16:39 36.10502 -79.93292 931 ft 5 kts 256°
2026-05-08 16:39 36.10501 -79.93331 928 ft 4 kts 269°
2026-05-08 16:40 36.10500 -79.93359 929 ft 0 kts 269°